Time,TemperatureF,DewpointF,PressureIn,WindDirection,WindDirectionDegrees,WindSpeedMPH,WindSpeedGustMPH,Humidity,HourlyPrecipIn,Conditions,Clouds,dailyrainin,SolarRadiationWatts/m^2,SoftwareType,DateUTC
2013-06-13 00:02:00,58.0,47.0,-100.00,North,5,3.0,6.0,68,0.00,,,0.00,0.000000,,2013-06-13 05:02:00,
2013-06-13 00:24:00,58.0,47.0,-100.00,North,5,3.0,6.0,68,0.00,,,0.00,0.000000,,2013-06-13 05:24:00,
2013-06-13 00:33:00,58.0,47.0,-100.00,North,5,3.0,6.0,68,0.00,,,0.00,0.000000,,2013-06-13 05:33:00,
2013-06-13 00:43:00,58.0,47.0,-100.00,North,5,3.0,6.0,68,0.00,,,0.00,0.000000,,2013-06-13 05:43:00,
2013-06-13 00:53:00,58.0,47.0,-100.00,North,5,3.0,6.0,68,0.00,,,0.00,0.000000,,2013-06-13 05:53:00,
2013-06-13 01:22:00,58.0,48.0,-100.00,NNE,14,3.0,7.0,69,0.00,,,0.00,0.000000,,2013-06-13 06:22:00,
2013-06-13 01:33:00,58.0,48.0,-100.00,NNE,14,3.0,7.0,69,0.00,,,0.00,0.000000,,2013-06-13 06:33:00,
2013-06-13 01:44:00,58.0,48.0,-100.00,NNE,14,3.0,7.0,69,0.00,,,0.00,0.000000,,2013-06-13 06:44:00,
2013-06-13 01:52:00,58.0,48.0,-100.00,NNE,14,3.0,7.0,69,0.00,,,0.00,0.000000,,2013-06-13 06:52:00,
2013-06-13 02:01:00,58.0,48.0,-100.00,NNE,14,3.0,7.0,69,0.00,,,0.00,0.000000,,2013-06-13 07:01:00,
2013-06-13 02:22:00,56.0,47.0,-100.00,North,9,4.0,8.0,73,0.00,,,0.00,0.000000,,2013-06-13 07:22:00,
2013-06-13 02:33:00,56.0,47.0,-100.00,North,9,4.0,8.0,73,0.00,,,0.00,0.000000,,2013-06-13 07:33:00,
2013-06-13 02:42:00,56.0,47.0,-100.00,North,9,4.0,8.0,73,0.00,,,0.00,0.000000,,2013-06-13 07:42:00,
2013-06-13 02:52:00,56.0,47.0,-100.00,North,9,4.0,8.0,73,0.00,,,0.00,0.000000,,2013-06-13 07:52:00,
2013-06-13 03:01:00,56.0,47.0,-100.00,North,9,4.0,8.0,73,0.00,,,0.00,0.000000,,2013-06-13 08:01:00,
2013-06-13 03:02:00,55.0,48.0,-100.00,North,8,4.0,9.0,78,0.00,,,0.00,0.000000,,2013-06-13 08:02:00,
2013-06-13 03:22:00,55.0,48.0,-100.00,North,8,4.0,9.0,78,0.00,,,0.00,0.000000,,2013-06-13 08:22:00,
2013-06-13 03:32:00,55.0,48.0,-100.00,North,8,4.0,9.0,78,0.00,,,0.00,0.000000,,2013-06-13 08:32:00,
2013-06-13 03:43:00,55.0,48.0,-100.00,North,8,4.0,9.0,78,0.00,,,0.00,0.000000,,2013-06-13 08:43:00,
2013-06-13 03:52:00,55.0,48.0,-100.00,North,8,4.0,9.0,78,0.00,,,0.00,0.000000,,2013-06-13 08:52:00,
2013-06-13 04:22:00,53.0,48.0,-100.00,NNE,15,5.0,10.0,82,0.00,,,-99.99,0.000000,,2013-06-13 09:22:00,
2013-06-13 04:32:00,53.0,48.0,-100.00,NNE,15,5.0,10.0,82,0.00,,,-99.99,0.000000,,2013-06-13 09:32:00,
2013-06-13 04:42:00,53.0,48.0,-100.00,NNE,15,5.0,10.0,82,0.00,,,-99.99,0.000000,,2013-06-13 09:42:00,
2013-06-13 04:52:00,53.0,48.0,-100.00,NNE,15,5.0,10.0,82,0.00,,,-99.99,0.000000,,2013-06-13 09:52:00,
2013-06-13 05:01:00,53.0,48.0,-100.00,NNE,15,5.0,10.0,82,0.00,,,-99.99,0.000000,,2013-06-13 10:01:00,
2013-06-13 05:02:00,52.0,49.0,-100.00,North,11,5.0,12.0,91,0.00,,,0.00,1.000000,,2013-06-13 10:02:00,
2013-06-13 05:22:00,52.0,49.0,-100.00,North,11,5.0,12.0,91,0.00,,,0.00,1.000000,,2013-06-13 10:22:00,
2013-06-13 05:33:00,52.0,49.0,-100.00,North,11,5.0,12.0,91,0.00,,,0.00,1.000000,,2013-06-13 10:33:00,
2013-06-13 05:43:00,52.0,49.0,-100.00,North,11,5.0,12.0,91,0.00,,,0.00,1.000000,,2013-06-13 10:43:00,
2013-06-13 05:53:00,52.0,49.0,-100.00,North,11,5.0,12.0,91,0.00,,,0.00,1.000000,,2013-06-13 10:53:00,
2013-06-13 06:24:00,52.0,50.0,-100.00,North,10,4.0,10.0,92,0.00,,,0.00,20.000000,,2013-06-13 11:24:00,
2013-06-13 06:32:00,52.0,50.0,-100.00,North,10,4.0,10.0,92,0.00,,,0.00,20.000000,,2013-06-13 11:32:00,
2013-06-13 06:42:00,52.0,50.0,-100.00,North,10,4.0,10.0,92,0.00,,,0.00,20.000000,,2013-06-13 11:42:00,
2013-06-13 06:52:00,52.0,50.0,-100.00,North,10,4.0,10.0,92,0.00,,,0.00,20.000000,,2013-06-13 11:52:00,
2013-06-13 07:01:00,52.0,50.0,-100.00,North,10,4.0,10.0,92,0.00,,,0.00,20.000000,,2013-06-13 12:01:00,
2013-06-13 07:22:00,52.0,50.0,-100.00,North,357,5.0,11.0,92,0.00,,,0.00,51.000000,,2013-06-13 12:22:00,
2013-06-13 07:35:00,52.0,50.0,-100.00,North,357,5.0,11.0,92,0.00,,,0.00,51.000000,,2013-06-13 12:35:00,
2013-06-13 07:43:00,52.0,50.0,-100.00,North,357,5.0,11.0,92,0.00,,,0.00,51.000000,,2013-06-13 12:43:00,
2013-06-13 07:52:00,52.0,50.0,-100.00,North,357,5.0,11.0,92,0.00,,,0.00,51.000000,,2013-06-13 12:52:00,
2013-06-13 08:01:00,52.0,50.0,-100.00,North,357,5.0,11.0,92,0.00,,,0.00,51.000000,,2013-06-13 13:01:00,
2013-06-13 08:02:00,54.0,50.0,-100.00,North,0,7.0,13.0,87,0.00,,,0.00,138.000000,,2013-06-13 13:02:00,
2013-06-13 08:22:00,54.0,50.0,-100.00,North,0,7.0,13.0,87,0.00,,,0.00,138.000000,,2013-06-13 13:22:00,
2013-06-13 08:33:00,54.0,50.0,-100.00,North,0,7.0,13.0,87,0.00,,,0.00,138.000000,,2013-06-13 13:33:00,
2013-06-13 08:43:00,54.0,50.0,-100.00,North,0,7.0,13.0,87,0.00,,,0.00,138.000000,,2013-06-13 13:43:00,
2013-06-13 08:53:00,54.0,50.0,-100.00,North,0,7.0,13.0,87,0.00,,,0.00,138.000000,,2013-06-13 13:53:00,
2013-06-13 09:02:00,57.0,50.0,-100.00,North,358,6.0,15.0,78,0.00,,,0.00,279.000000,,2013-06-13 14:02:00,
2013-06-13 09:22:00,57.0,50.0,-100.00,North,358,6.0,15.0,78,0.00,,,0.00,279.000000,,2013-06-13 14:22:00,
2013-06-13 09:33:00,57.0,50.0,-100.00,North,358,6.0,15.0,78,0.00,,,0.00,279.000000,,2013-06-13 14:33:00,
2013-06-13 09:43:00,57.0,50.0,-100.00,North,358,6.0,15.0,78,0.00,,,0.00,279.000000,,2013-06-13 14:43:00,
2013-06-13 09:53:00,57.0,50.0,-100.00,North,358,6.0,15.0,78,0.00,,,0.00,279.000000,,2013-06-13 14:53:00,
2013-06-13 10:02:00,63.0,52.0,-100.00,NNW,336,5.0,16.0,67,0.00,,,0.00,581.000000,,2013-06-13 15:02:00,
2013-06-13 10:22:00,63.0,52.0,-100.00,NNW,336,5.0,16.0,67,0.00,,,0.00,581.000000,,2013-06-13 15:22:00,
2013-06-13 10:33:00,63.0,52.0,-100.00,NNW,336,5.0,16.0,67,0.00,,,0.00,581.000000,,2013-06-13 15:33:00,
2013-06-13 10:43:00,63.0,52.0,-100.00,NNW,336,5.0,16.0,67,0.00,,,0.00,581.000000,,2013-06-13 15:43:00,
2013-06-13 10:53:00,63.0,52.0,-100.00,NNW,336,5.0,16.0,67,0.00,,,0.00,581.000000,,2013-06-13 15:53:00,
2013-06-13 11:02:00,64.0,50.0,-100.00,NNW,344,7.0,17.0,60,0.00,,,0.00,866.000000,,2013-06-13 16:02:00,
2013-06-13 11:22:00,64.0,50.0,-100.00,NNW,344,7.0,17.0,60,0.00,,,0.00,866.000000,,2013-06-13 16:22:00,
2013-06-13 11:33:00,64.0,50.0,-100.00,NNW,344,7.0,17.0,60,0.00,,,0.00,866.000000,,2013-06-13 16:33:00,
2013-06-13 11:43:00,64.0,50.0,-100.00,NNW,344,7.0,17.0,60,0.00,,,0.00,866.000000,,2013-06-13 16:43:00,
2013-06-13 11:53:00,64.0,50.0,-100.00,NNW,344,7.0,17.0,60,0.00,,,0.00,866.000000,,2013-06-13 16:53:00,
2013-06-13 12:02:00,66.0,49.0,-100.00,North,352,6.0,19.0,54,0.00,,,0.00,978.000000,,2013-06-13 17:02:00,
2013-06-13 12:25:00,66.0,49.0,-100.00,North,352,6.0,19.0,54,0.00,,,0.00,978.000000,,2013-06-13 17:25:00,
2013-06-13 12:33:00,66.0,49.0,-100.00,North,352,6.0,19.0,54,0.00,,,0.00,978.000000,,2013-06-13 17:33:00,
2013-06-13 12:43:00,66.0,49.0,-100.00,North,352,6.0,19.0,54,0.00,,,0.00,978.000000,,2013-06-13 17:43:00,
2013-06-13 12:53:00,66.0,49.0,-100.00,North,352,6.0,19.0,54,0.00,,,0.00,978.000000,,2013-06-13 17:53:00,
2013-06-13 13:22:00,66.0,49.0,-100.00,NNE,16,7.0,15.0,55,0.00,,,0.00,832.000000,,2013-06-13 18:22:00,
2013-06-13 13:33:00,66.0,49.0,-100.00,NNE,16,7.0,15.0,55,0.00,,,0.00,832.000000,,2013-06-13 18:33:00,
2013-06-13 13:43:00,66.0,49.0,-100.00,NNE,16,7.0,15.0,55,0.00,,,0.00,832.000000,,2013-06-13 18:43:00,
2013-06-13 13:52:00,66.0,49.0,-100.00,NNE,16,7.0,15.0,55,0.00,,,0.00,832.000000,,2013-06-13 18:52:00,
2013-06-13 14:01:00,66.0,49.0,-100.00,NNE,16,7.0,15.0,55,0.00,,,0.00,832.000000,,2013-06-13 19:01:00,
2013-06-13 14:23:00,68.0,51.0,-100.00,North,4,6.0,15.0,55,0.00,,,0.00,1013.000000,,2013-06-13 19:23:00,
2013-06-13 14:33:00,68.0,51.0,-100.00,North,4,6.0,15.0,55,0.00,,,0.00,1013.000000,,2013-06-13 19:33:00,
2013-06-13 14:43:00,68.0,51.0,-100.00,North,4,6.0,15.0,55,0.00,,,0.00,1013.000000,,2013-06-13 19:43:00,
2013-06-13 14:53:00,68.0,51.0,-100.00,North,4,6.0,15.0,55,0.00,,,0.00,1013.000000,,2013-06-13 19:53:00,
2013-06-13 15:01:00,68.0,51.0,-100.00,North,4,6.0,15.0,55,0.00,,,0.00,1013.000000,,2013-06-13 20:01:00,
2013-06-13 15:02:00,69.0,52.0,-100.00,NNE,18,6.0,16.0,55,0.00,,,0.00,897.000000,,2013-06-13 20:02:00,
2013-06-13 15:22:00,69.0,52.0,-100.00,NNE,18,6.0,16.0,55,0.00,,,0.00,897.000000,,2013-06-13 20:22:00,
2013-06-13 15:33:00,69.0,52.0,-100.00,NNE,18,6.0,16.0,55,0.00,,,0.00,897.000000,,2013-06-13 20:33:00,
2013-06-13 15:44:00,69.0,52.0,-100.00,NNE,18,6.0,16.0,55,0.00,,,0.00,897.000000,,2013-06-13 20:44:00,
2013-06-13 15:53:00,69.0,52.0,-100.00,NNE,18,6.0,16.0,55,0.00,,,0.00,897.000000,,2013-06-13 20:53:00,
2013-06-13 16:02:00,69.0,52.0,-100.00,North,354,6.0,15.0,54,0.00,,,0.00,741.000000,,2013-06-13 21:02:00,
2013-06-13 16:22:00,69.0,52.0,-100.00,North,354,6.0,15.0,54,0.00,,,0.00,741.000000,,2013-06-13 21:22:00,
2013-06-13 16:34:00,69.0,52.0,-100.00,North,354,6.0,15.0,54,0.00,,,0.00,741.000000,,2013-06-13 21:34:00,
2013-06-13 16:43:00,69.0,52.0,-100.00,North,354,6.0,15.0,54,0.00,,,0.00,741.000000,,2013-06-13 21:43:00,
2013-06-13 16:52:00,69.0,52.0,-100.00,North,354,6.0,15.0,54,0.00,,,0.00,741.000000,,2013-06-13 21:52:00,
2013-06-13 17:02:00,69.0,52.0,-100.00,NNE,27,6.0,13.0,55,0.00,,,0.00,582.000000,,2013-06-13 22:02:00,
2013-06-13 17:22:00,69.0,52.0,-100.00,NNE,27,6.0,13.0,55,0.00,,,0.00,582.000000,,2013-06-13 22:22:00,
2013-06-13 17:33:00,69.0,52.0,-100.00,NNE,27,6.0,13.0,55,0.00,,,0.00,582.000000,,2013-06-13 22:33:00,
2013-06-13 17:43:00,69.0,52.0,-100.00,NNE,27,6.0,13.0,55,0.00,,,0.00,582.000000,,2013-06-13 22:43:00,
2013-06-13 17:52:00,69.0,52.0,-100.00,NNE,27,6.0,13.0,55,0.00,,,0.00,582.000000,,2013-06-13 22:52:00,
2013-06-13 18:22:00,69.0,52.0,-100.00,North,5,5.0,14.0,55,0.00,,,0.00,404.000000,,2013-06-13 23:22:00,
2013-06-13 18:32:00,69.0,52.0,-100.00,North,5,5.0,14.0,55,0.00,,,0.00,404.000000,,2013-06-13 23:32:00,
2013-06-13 18:43:00,69.0,52.0,-100.00,North,5,5.0,14.0,55,0.00,,,0.00,404.000000,,2013-06-13 23:43:00,
2013-06-13 18:52:00,69.0,52.0,-100.00,North,5,5.0,14.0,55,0.00,,,0.00,404.000000,,2013-06-13 23:52:00,
2013-06-13 19:01:00,69.0,52.0,-100.00,North,5,5.0,14.0,55,0.00,,,0.00,404.000000,,2013-06-14 00:01:00,
2013-06-13 19:22:00,66.0,50.0,-100.00,NNE,31,5.0,13.0,57,0.00,,,0.00,301.000000,,2013-06-14 00:22:00,
2013-06-13 19:34:00,66.0,50.0,-100.00,NNE,31,5.0,13.0,57,0.00,,,0.00,301.000000,,2013-06-14 00:34:00,
2013-06-13 19:43:00,66.0,50.0,-100.00,NNE,31,5.0,13.0,57,0.00,,,0.00,301.000000,,2013-06-14 00:43:00,
2013-06-13 19:53:00,66.0,50.0,-100.00,NNE,31,5.0,13.0,57,0.00,,,0.00,301.000000,,2013-06-14 00:53:00,
2013-06-13 20:01:00,66.0,50.0,-100.00,NNE,31,5.0,13.0,57,0.00,,,0.00,301.000000,,2013-06-14 01:01:00,
2013-06-13 20:02:00,62.0,51.0,-100.00,NE,39,4.0,10.0,66,0.00,,,0.00,115.000000,,2013-06-14 01:02:00,
2013-06-13 20:22:00,62.0,51.0,-100.00,NE,39,4.0,10.0,66,0.00,,,0.00,115.000000,,2013-06-14 01:22:00,
2013-06-13 20:33:00,62.0,51.0,-100.00,NE,39,4.0,10.0,66,0.00,,,0.00,115.000000,,2013-06-14 01:33:00,
2013-06-13 20:43:00,62.0,51.0,-100.00,NE,39,4.0,10.0,66,0.00,,,0.00,115.000000,,2013-06-14 01:43:00,
2013-06-13 20:52:00,62.0,51.0,-100.00,NE,39,4.0,10.0,66,0.00,,,0.00,115.000000,,2013-06-14 01:52:00,
2013-06-13 21:02:00,57.0,50.0,-100.00,NE,56,3.0,8.0,77,0.00,,,0.00,13.000000,,2013-06-14 02:02:00,
2013-06-13 21:22:00,57.0,50.0,-100.00,NE,56,3.0,8.0,77,0.00,,,0.00,13.000000,,2013-06-14 02:22:00,
2013-06-13 21:33:00,57.0,50.0,-100.00,NE,56,3.0,8.0,77,0.00,,,0.00,13.000000,,2013-06-14 02:33:00,
2013-06-13 21:43:00,57.0,50.0,-100.00,NE,56,3.0,8.0,77,0.00,,,0.00,13.000000,,2013-06-14 02:43:00,
2013-06-13 21:53:00,57.0,50.0,-100.00,NE,56,3.0,8.0,77,0.00,,,0.00,13.000000,,2013-06-14 02:53:00,
2013-06-13 22:22:00,55.0,49.0,-100.00,NE,49,4.0,8.0,81,0.00,,,-99.99,0.000000,,2013-06-14 03:22:00,
2013-06-13 22:34:00,55.0,49.0,-100.00,NE,49,4.0,8.0,81,0.00,,,-99.99,0.000000,,2013-06-14 03:34:00,
2013-06-13 22:43:00,55.0,49.0,-100.00,NE,49,4.0,8.0,81,0.00,,,-99.99,0.000000,,2013-06-14 03:43:00,
2013-06-13 22:53:00,55.0,49.0,-100.00,NE,49,4.0,8.0,81,0.00,,,-99.99,0.000000,,2013-06-14 03:53:00,
2013-06-13 23:01:00,55.0,49.0,-100.00,NE,49,4.0,8.0,81,0.00,,,-99.99,0.000000,,2013-06-14 04:01:00,
2013-06-13 23:02:00,53.0,45.0,-100.00,NE,43,3.0,8.0,75,0.00,,,0.00,0.000000,,2013-06-14 04:02:00,
2013-06-13 23:23:00,53.0,45.0,-100.00,NE,43,3.0,8.0,75,0.00,,,0.00,0.000000,,2013-06-14 04:23:00,
2013-06-13 23:33:00,53.0,45.0,-100.00,NE,43,3.0,8.0,75,0.00,,,0.00,0.000000,,2013-06-14 04:33:00,
2013-06-13 23:43:00,53.0,45.0,-100.00,NE,43,3.0,8.0,75,0.00,,,0.00,0.000000,,2013-06-14 04:43:00,
2013-06-13 23:53:00,53.0,45.0,-100.00,NE,43,3.0,8.0,75,0.00,,,0.00,0.000000,,2013-06-14 04:53:00,